Terug naar catalogus

SL-16 DEB

LostLEO
NORAD 42235·DEBRIS·🇷🇺 Russia

Gelanceerd Mar 26, 1993 vanaf Baikonur Cosmodrome

Loading…

Volgende Passages (komende 24 uur)

TLE

VerouderdSource: Space-Track

Epoch: Nov 30, 2022, 05:30 UTC

1 42235U 93016CP  22334.22948278  .00005088  00000-0  21632-2 0  9998
2 42235  70.9946 283.8184 0127279  56.3974 304.9223 14.21402210932463

Volg SL-16 DEB in realtime met AllMySat

Download on the App Store